This is the latest recevied weather packets stored in our database for station/object W3JGB. If no packets are shown the sender has not sent any weather packets the latest 10 day(s).
| Time | Temp. | Humidity | Pressure | Rain* | Wind** | Luminosity | Snow |
|---|---|---|---|---|---|---|---|
| 1777600162 | 7.78° C | 87% | 1013.3 hPa | 0 mm | - | 0 W/m² | - |
| 1777599857 | 7.78° C | 88% | 1013 hPa | 0 mm | - | 0 W/m² | - |
| 1777599554 | 7.78° C | 86% | 1013 hPa | 0 mm | - | 0 W/m² | - |
| 1777599251 | 7.78° C | 88% | 1013.1 hPa | 0 mm | - | 0 W/m² | - |
| 1777598947 | 7.78° C | 87% | 1012.8 hPa | 0 mm | - | 0 W/m² | - |
| 1777598644 | 7.78° C | 86% | 1012.8 hPa | 0 mm | - | 0 W/m² | - |
| 1777598340 | 7.78° C | 87% | 1012.6 hPa | 0 mm | - | 0 W/m² | - |
| 1777598038 | 7.78° C | 86% | 1012.3 hPa | 0 mm | - | 0 W/m² | - |
| 1777597737 | 7.78° C | 84% | 1012.4 hPa | 0 mm | - | 0 W/m² | - |
| 1777597433 | 7.78° C | 86% | 1012.6 hPa | 0 mm | - | 0 W/m² | - |
| 1777597128 | 7.78° C | 82% | 1012.5 hPa | 0 mm | - | 0 W/m² | - |
| 1777596825 | 8.33° C | 83% | 1012.5 hPa | 0 mm | - | 0 W/m² | - |
| 1777596520 | 8.33° C | 83% | 1012.5 hPa | 0 mm | - | 0 W/m² | - |
| 1777596218 | 8.33° C | 80% | 1012.3 hPa | 0 mm | - | 0 W/m² | - |
| 1777595915 | 8.33° C | 80% | 1012.3 hPa | 0 mm | - | 0 W/m² | - |
| 1777595610 | 8.33° C | 81% | 1012.2 hPa | 0 mm | - | 0 W/m² | - |
| 1777595306 | 8.89° C | 82% | 1012.2 hPa | 0 mm | - | 0 W/m² | - |
| 1777595002 | 8.89° C | 81% | 1011.9 hPa | 0 mm | - | 0 W/m² | - |
| 1777594699 | 8.89° C | 78% | 1011.9 hPa | 0 mm | - | 0 W/m² | - |
| 1777594396 | 8.89° C | 80% | 1012 hPa | 0 mm | - | 0 W/m² | - |
| 1777594091 | 8.89° C | 80% | 1011.8 hPa | 0 mm | - | 0 W/m² | - |
| 1777593787 | 8.89° C | 78% | 1011.9 hPa | 0 mm | - | 2 W/m² | - |
* Rain latest hour (hover to see other rain measurements)
** Current wind speed in m/s (hover to see current wind gust speed)